DELTA 1 DEB, 42565

Orbit data source: Space-Track

DELTA 1 DEB, 42565 is space debris in SSO originally from a launch on Sun, 23 Jul 1972 UTC launched from the Air Force Western Test Range (AFWTR). Debris objects in space refer to the collection of defunct objects orbiting the Earth. Examples of debris include non-operational satellites, rocket bodies, and fragments generated from explosions, collisions, or faulty payload assembly.

Loading next visibility...
DELTA 1 DEB details
Identifier
42565, 1972-058JY
Orbit
SSO
Last TLE update2 days ago
Origin
Flag of USGSFC (US)
ManufacturerUnknown
MissionSpacecraft
Bus & MotorUnknown
MassUnknown
Launch date (UTC)
1972-07-23 (52 years ago)
Launch vehicleUnknown
Launch site
Air Force Western Test Range (AFWTR)
Object type
Payload
Rocket body
Debris
Shape & HBRUnknown
Radar Cross SectionSmall (<0.1 m²)

Expand to show TLE details & history

TLE from 2 days ago
0 DELTA 1 DEB
1 42565U 72058JY  24347.22790898  .00001281  00000-0  30643-3 0  9990
2 42565  97.8203 165.2161 0038214 106.1449 254.3960 14.54685966586189
Epoch: 2024-12-12T05:28Z
Definitive object data (Epoch: 2024-12-12T05:28:11.335Z)
Latitude-0.00012°
Longitude1.75763°
Altitude720.758 km
Speed7.491 km/s
True Right ascension11h 00m 51s
True Declination0° 00' 00"
Sunlit
Object was in daylight at TLE epoch
Visualization TLE readout
Latitude4.95891°
Longitude2.94523°
Altitude715.024 km
Speed7.497 km/s
Apparent Right ascension13h 00m 07s
Apparent Declination-19° 33' 31"
Sunlit
Object is in daylight
Visualization observer readout
Local Sidereal Time03:55:01
Azimuth74.536° E
Elevation-47.485°
Doppler factor1
Orbital elements
Apogee altitude734.533 km
Perigee altitude680.379 km
Semi-major axis7,085.593 km
Eccentricity0.0038214
Inclination97.8203°
RAAN165.2161°
Arg. of periapsis106.1449°
True anomaly253.97478°
Mean anomaly254.396°
Eccentric anomaly254.18534°
Mean motion3.63897 °/min
BSTAR0.00030643
Orbital period98.93 mins
Loading maneuver chart data...

DELTA 1 DEB Visibility forecast

Observer location: undefined°, undefined

Span
Click to sort rows by Start time (UTC) header in descending order
Start Az.
Max El. time (UTC)
Max El. Az.
Max El.
End time (UTC)
End Az.
8 mins2024-12-14 12:03:59.534Z165.378° S2024-12-14 12:07:59.534Z13.349° NNE44.918°2024-12-14 12:11:59.534Z348.129° N
6 mins2024-12-15 00:05:59.534Z48.437° ENE2024-12-15 00:08:59.534Z99.285° ESE23.076°2024-12-15 00:11:59.534Z145.391° SSE
6 mins2024-12-15 01:43:59.534Z340.595° N2024-12-15 01:46:59.534Z283.424° WNW26.859°2024-12-15 01:49:59.534Z235.145° WSW
|